Weather History for Miles City, MT

Change the Weather History Date:

Thursday, May 16, 2013

  Actual Average Record
Temperature  
Mean Temperature 64 °F 56 °F  
Max Temperature 73 °F 69 °F 91 °F (2012)
Min Temperature 54 °F 43 °F 31 °F (1968)
Degree Days  
Heating Degree Days 1 10  
Month to date heating degree days 119 190  
Since 1 July heating degree days 7004 7436  
Cooling Degree Days 0 1  
Month to date cooling degree days 11 3  
Year to date cooling degree days 11 4  
Growing Degree Days 14 (Base 50)    
Moisture  
Dew Point 47 °F    
Average Humidity 64    
Maximum Humidity 86    
Minimum Humidity 41    
Precipitation  
Precipitation 0.14 in 0.07 in 0.42 in (1993)
Month to date precipitation 0.14 1.03  
Year to date precipitation 1.97 3.55  
Sea Level Pressure  
Sea Level Pressure 29.80 in    
Wind  
Wind Speed 9 mph (East)    
Max Wind Speed 22 mph    
Max Gust Speed 24 mph    
Visibility 10 miles    
Events Rain    
T = Trace of Precipitation, MM = Missing Value Source: NWS Daily Summary

Daily Weather History Graph

Daily Weather History Graph

Search for Another Location

Airport:

Trip Planner

Search our weather history database for the weather conditions in past years. The results will help you decide how hot, cold, wet, or windy it might be!

Date:

Astronomy

May. 16, 2013 Rise Set
Actual Time 5:28 AM MDT 8:32 PM MDT
Civil Twilight 4:52 AM MDT 9:07 PM MDT
Nautical Twilight 4:06 AM MDT 9:54 PM MDT
Astronomical Twilight 3:11 AM MDT 10:50 PM MDT
Moon 11:11 AM MDT (5/16) 12:48 AM MDT (5/16)
Length of Visible Light 16h 15m
Length of Day
15h 03m
Waxing Crescent, 36% of the Moon is Illuminated
May 16
Waxing Crescent
May 17
First Quarter
May 24
Full
May 31
Last Quarter
Jun 8
New

Hourly Weather History & Observations

Time (MDT) Temp. Dew Point Humidity Pressure Visibility Wind Dir Wind Speed Gust Speed Precip Events Conditions
12:53 AM 64.0 °F 33.1 °F 31% 29.81 in 10.0 mi NE 4.6 mph - 0.00 in Rain Light Rain
1:53 AM 62.1 °F 41.0 °F 46% 29.82 in 10.0 mi SE 11.5 mph - 0.00 in Rain Light Rain
2:53 AM 57.0 °F 50.0 °F 77% 29.83 in 10.0 mi SE 12.7 mph - 0.07 in Rain Light Rain
3:53 AM 55.9 °F 51.1 °F 84% 29.80 in 10.0 mi SE 8.1 mph - 0.06 in Rain Light Rain
4:53 AM 57.0 °F 48.0 °F 72% 29.80 in 10.0 mi ESE 8.1 mph - 0.01 in Rain Light Rain
5:53 AM 57.0 °F 46.9 °F 69% 29.79 in 10.0 mi SE 9.2 mph - 0.00 in   Overcast
6:53 AM 57.0 °F 46.9 °F 69% 29.80 in 10.0 mi ESE 6.9 mph - N/A   Mostly Cloudy
7:53 AM 57.9 °F 46.9 °F 67% 29.81 in 10.0 mi SE 3.5 mph - N/A   Overcast
8:53 AM 61.0 °F 46.9 °F 60% 29.83 in 10.0 mi SE 5.8 mph - N/A   Clear
9:53 AM 62.1 °F 46.9 °F 58% 29.83 in 10.0 mi Calm Calm - N/A   Partly Cloudy
10:53 AM 64.9 °F 48.0 °F 54% 29.82 in 10.0 mi ESE 8.1 mph 16.1 mph N/A   Clear
11:53 AM 66.0 °F 48.9 °F 54% 29.81 in 10.0 mi ESE 10.4 mph - N/A   Mostly Cloudy
12:53 PM 69.1 °F 48.9 °F 49% 29.80 in 10.0 mi ESE 8.1 mph - N/A   Partly Cloudy
1:53 PM 70.0 °F 46.9 °F 44% 29.79 in 10.0 mi ENE 8.1 mph 18.4 mph N/A   Clear
2:53 PM 71.1 °F 46.9 °F 42% 29.78 in 10.0 mi ENE 8.1 mph - N/A   Clear
3:53 PM 72.0 °F 46.9 °F 41% 29.76 in 10.0 mi ENE 12.7 mph 20.7 mph N/A   Clear
4:53 PM 71.1 °F 46.0 °F 41% 29.75 in 10.0 mi East 15.0 mph 19.6 mph N/A   Clear
5:53 PM 70.0 °F 46.9 °F 44% 29.75 in 10.0 mi NE 18.4 mph - N/A   Partly Cloudy
6:53 PM 66.0 °F 48.0 °F 52% 29.77 in 10.0 mi ENE 13.8 mph 21.9 mph N/A   Clear
7:53 PM 63.0 °F 48.0 °F 58% 29.79 in 10.0 mi ENE 11.5 mph - N/A   Clear
8:53 PM 60.1 °F 48.9 °F 67% 29.80 in 10.0 mi ENE 9.2 mph - N/A   Clear
9:53 PM 59.0 °F 50.0 °F 72% 29.82 in 10.0 mi NE 6.9 mph - N/A   Clear
10:53 PM 57.0 °F 51.1 °F 81% 29.82 in 10.0 mi NE 9.2 mph - N/A   Mostly Cloudy
11:53 PM 55.9 °F 51.1 °F 84% 29.81 in 10.0 mi ENE 8.1 mph - N/A   Mostly Cloudy